Regional Weather Roundup
Issued by NWS State College, PA

Home | Current Version | Previous Version | Text Only | Print | Product List | Glossary On
Versions: 1 2 3 4 5 6 7 8 9 10 11 12 13 14 15 16 17 18 19 20 21 22 23 24 25 26 27 28 29 30 31 32 33 34 35 36 37 38 39 40 41 42 43 44 45 46 47 48 49 50
155
ASUS41 KCTP 191910
RWRCTP

REGIONAL WEATHER ROUNDUP
NATIONAL WEATHER SERVICE STATE COLLEGE PA
200 PM EST THU JAN 19 2017

Note: "fair" indicates few or no clouds below 12,000 feet with no
significant weather and/or obstructions to visibility.

* = STATION THAT DOES NOT REPORT PRECIPITATION /E.G. RAIN...SNOW...ETC/
    THUNDER OR FOG.

PAZ002>004-007>009-013>016-020>023-029>032-192000-
WESTERN PENNSYLVANIA

CITY           SKY/WX    TMP DP  RH WIND       PRES   REMARKS
ERIE           CLOUDY    36  33  89 NW5       30.01F FOG
MEADVILLE      CLOUDY    37  32  82 S5        29.99F
FRANKLIN*        N/A     37  32  81 S6        30.01S
NEW CASTLE     CLOUDY    39  34  82 CALM      30.02F
BEAVER COUNTY  CLOUDY    39  34  81 CALM      30.00F
BUTLER*        CLOUDY    39  34  81 S6        30.03F
PITTSBURGH INT CLOUDY    40  35  83 SE6       30.01F
PITTSBURGH     CLOUDY    40  32  73 S6        30.00F
INDIANA*       CLOUDY    39  36  87 SW6       30.03F
LATROBE        CLOUDY    41  36  81 CALM      30.02F
WASHINGTON CO* CLOUDY    41  34  75 SW7       30.01F
$$

PAZ004>006-010>012-017>019-024>028-033>037-041-042-045-046-049>053-192000-
CENTRAL PENNSYLVANIA

CITY           SKY/WX    TMP DP  RH WIND       PRES   REMARKS
BRADFORD       CLOUDY    35  33  92 CALM      29.95F
DUBOIS         CLOUDY    37  31  78 SW5       29.97F
CLEARFIELD     CLOUDY    39  34  82 CALM      29.99F
JOHNSTOWN      CLOUDY    38  34  85 S6        29.96F
ALTOONA        CLOUDY    43  35  73 VRB3      30.01F
STATE COLLEGE  CLOUDY    39  34  81 W5        30.02F
WILLIAMSPORT   CLOUDY    46  33  60 CALM      30.01F
SELINSGROVE    CLOUDY    46  35  65 W5        30.03F
FT INDIANTOWN  MOSUNNY   47  35  62 NW7       30.01F
CAPITAL CITY   CLOUDY    49  33  54 VRB3      30.02F
HARRISBURG     PTSUNNY   49  35  58 NW6       30.02F
YORK           CLOUDY    49  37  63 NW7       30.02F
$$

PAZ038>040-043-044-047-048-054-055-060>062-067>071-192000-
EASTERN PENNSYLVANIA

CITY           SKY/WX    TMP DP  RH WIND       PRES   REMARKS
SCRANTON       CLOUDY    40  34  79 NW6       30.01S
MOUNT POCONO   CLOUDY    35  30  82 NW8       29.96S
ALLENTOWN      CLOUDY    45  34  65 NW6       30.02F
QUAKERTOWN*    CLOUDY    43  36  75 W5        30.02F
READING        MOSUNNY   48  35  60 NW9       30.00F
LANCASTER      PTSUNNY   48  36  63 NW6       30.01F
COATESVILLE    CLOUDY    45  34  65 NW8       30.03S
POTTSTOWN      CLOUDY    44  34  67 NW6       30.03F
BLUE BELL      CLOUDY    43  34  70 NW5       30.02S
DOYLESTOWN     CLOUDY    45  36  70 NW7       30.01S
WILLOW GROVE   NOT AVBL
NORTH PHILA    CLOUDY    46  35  65 NW9       30.04R
PHILADELPHIA   CLOUDY    48  35  60 N12       30.03S
$$




USA.gov is the U.S. government's official web portal to all federal, state and local government web resources and services.